ENT4183 EPKT-LTAI

Flight info

Callsign ENT4183
Flight time N/A
Altitude 35000
Route REGTO DCT RAZEC DCT KEKED DCT UPAMA DCT ADORU UG80 EKI UL606 CRD UL854 KOZLU
Aircraft B38M/M-SDE1FGHILORVWXY/HB1

Departure

Time N/A
Airport Katowice Wojciech Korfanty International Airport (EPKT)

Arrival

Time 2026-05-07 02:51
Airport Antalya International Airport (LTAI)
Time Latitude Longitude Altitude Speed Heading
2026-05-07 00:23 50.17491 19.40719 18114 ft 367 kts 138°
2026-05-07 00:23 50.15746 19.43634 18677 ft 370 kts 138°
2026-05-07 00:23 50.13987 19.46569 19396 ft 366 kts 138°
2026-05-07 00:24 50.12278 19.49419 20396 ft 354 kts 138°
2026-05-07 00:24 50.11176 19.51255 21075 ft 346 kts 138°
2026-05-07 00:24 50.10992 19.51559 21186 ft 345 kts 138°
2026-05-07 00:24 50.09433 19.54153 22149 ft 334 kts 138°
2026-05-07 00:25 50.07894 19.56711 23081 ft 323 kts 138°
2026-05-07 00:25 50.06374 19.59234 23800 ft 317 kts 139°
2026-05-07 00:25 50.04863 19.61740 24204 ft 319 kts 139°
2026-05-07 00:25 50.03335 19.64271 24557 ft 322 kts 138°
2026-05-07 00:26 50.01796 19.66818 24918 ft 325 kts 139°
2026-05-07 00:26 50.00244 19.69384 25276 ft 327 kts 139°
2026-05-07 00:26 49.98680 19.71968 25621 ft 329 kts 139°
2026-05-07 00:26 49.97105 19.74567 25961 ft 332 kts 139°
2026-05-07 00:27 49.95516 19.77186 26295 ft 334 kts 139°
2026-05-07 00:27 49.93929 19.79798 26447 ft 343 kts 138°
2026-05-07 00:27 49.92260 19.82543 26456 ft 356 kts 138°
2026-05-07 00:27 49.90533 19.85381 26479 ft 368 kts 138°
2026-05-07 00:28 49.88745 19.88316 26513 ft 380 kts 138°
2026-05-07 00:28 49.86900 19.91341 26547 ft 392 kts 138°
2026-05-07 00:28 49.84995 19.94461 26578 ft 405 kts 137°
2026-05-07 00:28 49.83028 19.97678 26594 ft 417 kts 137°
2026-05-07 00:29 49.81053 20.00903 26999 ft 417 kts 137°
2026-05-07 00:29 49.79022 20.04218 27369 ft 421 kts 137°
2026-05-07 00:30 49.72941 20.14110 28401 ft 429 kts 137°
2026-05-07 00:30 49.70876 20.17462 28749 ft 431 kts 137°
2026-05-07 00:30 49.68801 20.20825 29084 ft 434 kts 137°
2026-05-07 00:30 49.66715 20.24202 29400 ft 436 kts 137°
2026-05-07 00:31 49.64613 20.27598 29769 ft 438 kts 137°
2026-05-07 00:31 49.62503 20.31004 30063 ft 440 kts 137°
2026-05-07 00:31 49.60410 20.34377 30338 ft 442 kts 137°
2026-05-07 00:31 49.58279 20.37809 30644 ft 444 kts 138°
2026-05-07 00:32 49.56137 20.41252 30925 ft 446 kts 138°
2026-05-07 00:32 49.53986 20.44705 31203 ft 447 kts 137°
2026-05-07 00:32 49.51829 20.48165 31466 ft 450 kts 137°
2026-05-07 00:32 49.49657 20.51642 31742 ft 451 kts 138°
2026-05-07 00:33 49.47479 20.55124 32023 ft 453 kts 138°
2026-05-07 00:33 49.45290 20.58619 32298 ft 454 kts 138°
2026-05-07 00:33 49.43126 20.62071 32654 ft 454 kts 138°
2026-05-07 00:33 49.40917 20.65516 33015 ft 451 kts 142°
2026-05-07 00:34 49.38374 20.68241 33372 ft 443 kts 153°
2026-05-07 00:34 49.35745 20.70716 33657 ft 444 kts 152°
2026-05-07 00:34 49.33120 20.73198 33972 ft 444 kts 152°
2026-05-07 00:34 49.30483 20.75664 34260 ft 443 kts 153°
2026-05-07 00:35 49.27849 20.78114 34535 ft 443 kts 153°
2026-05-07 00:35 49.25219 20.80553 34856 ft 441 kts 153°
2026-05-07 00:35 49.19958 20.85421 34877 ft 451 kts 153°
2026-05-07 00:36 49.14536 20.90427 34884 ft 459 kts 153°
2026-05-07 00:36 49.09029 20.95496 34889 ft 465 kts 153°
2026-05-07 00:37 49.03460 21.00609 34893 ft 469 kts 153°
2026-05-07 00:37 48.97884 21.05716 34900 ft 472 kts 153°
2026-05-07 00:38 48.92246 21.10865 34898 ft 473 kts 153°
2026-05-07 00:38 48.86599 21.16009 34912 ft 474 kts 153°
2026-05-07 00:39 48.80936 21.21154 34905 ft 474 kts 153°
2026-05-07 00:39 48.75275 21.26283 34912 ft 474 kts 153°
2026-05-07 00:40 48.69646 21.31370 34905 ft 475 kts 153°
2026-05-07 00:40 48.63970 21.36486 34910 ft 474 kts 153°
2026-05-07 00:41 48.58298 21.41584 34909 ft 475 kts 153°
2026-05-07 00:41 48.52617 21.46677 34911 ft 475 kts 153°
2026-05-07 00:42 48.46978 21.51720 34912 ft 475 kts 153°
2026-05-07 00:42 48.41294 21.56789 34918 ft 475 kts 153°
2026-05-07 00:43 48.35609 21.61846 34912 ft 475 kts 153°
2026-05-07 00:43 48.29915 21.66897 34918 ft 475 kts 153°
2026-05-07 00:44 48.24269 21.71893 34926 ft 474 kts 153°
2026-05-07 00:44 48.18578 21.76916 34927 ft 474 kts 153°
2026-05-07 00:45 48.12890 21.81923 34933 ft 474 kts 153°
2026-05-07 00:45 48.07197 21.86921 34934 ft 475 kts 153°
2026-05-07 00:46 48.01535 21.91880 34935 ft 475 kts 153°
2026-05-07 00:46 47.95829 21.96863 34938 ft 475 kts 153°
2026-05-07 00:47 47.90125 22.01833 34931 ft 475 kts 153°
2026-05-07 00:47 47.84413 22.06796 34930 ft 475 kts 153°
2026-05-07 00:48 47.78736 22.11717 34929 ft 475 kts 153°
2026-05-07 00:48 47.73017 22.16661 34933 ft 476 kts 153°
2026-05-07 00:49 47.67291 22.21599 34938 ft 476 kts 153°
2026-05-07 00:49 47.61566 22.26522 34935 ft 476 kts 153°
2026-05-07 00:50 47.55872 22.31408 34942 ft 476 kts 153°
2026-05-07 00:50 47.50142 22.36311 34947 ft 476 kts 153°
2026-05-07 00:51 47.44405 22.41208 34955 ft 476 kts 153°
2026-05-07 00:51 47.38658 22.46100 34958 ft 477 kts 153°
2026-05-07 00:52 47.32907 22.50984 34960 ft 477 kts 153°
2026-05-07 00:52 47.27188 22.55829 34969 ft 477 kts 153°
2026-05-07 00:53 47.21423 22.60699 34974 ft 478 kts 153°
2026-05-07 00:53 47.15653 22.65562 34982 ft 478 kts 153°
2026-05-07 00:54 47.09881 22.70414 34978 ft 478 kts 153°
2026-05-07 00:54 47.04140 22.75228 34998 ft 479 kts 153°
2026-05-07 00:55 46.98352 22.80070 35000 ft 479 kts 153°
2026-05-07 00:55 46.92557 22.84904 35006 ft 479 kts 153°
2026-05-07 00:56 46.86759 22.89730 35011 ft 480 kts 153°
2026-05-07 00:56 46.80990 22.94519 35010 ft 480 kts 153°
2026-05-07 00:57 46.75179 22.99331 35019 ft 480 kts 153°
2026-05-07 00:57 46.69367 23.04132 35020 ft 481 kts 153°
2026-05-07 00:58 46.63548 23.08927 35028 ft 481 kts 153°
2026-05-07 00:58 46.57758 23.13686 35025 ft 481 kts 153°
2026-05-07 00:59 46.49011 23.20852 35027 ft 481 kts 153°
2026-05-07 01:00 46.43178 23.25616 35027 ft 481 kts 153°
2026-05-07 01:00 46.37343 23.30371 35027 ft 481 kts 153°
2026-05-07 01:01 46.31536 23.35092 35021 ft 482 kts 153°
2026-05-07 01:01 46.25686 23.39834 35022 ft 482 kts 153°
2026-05-07 01:02 46.19823 23.44576 35014 ft 483 kts 153°
2026-05-07 01:02 46.13959 23.49307 35015 ft 483 kts 153°
2026-05-07 01:03 46.08124 23.54003 35014 ft 484 kts 153°
2026-05-07 01:03 46.02248 23.58721 35015 ft 484 kts 153°
2026-05-07 01:04 45.96361 23.63435 35015 ft 484 kts 153°
2026-05-07 01:04 45.90473 23.68139 35025 ft 485 kts 153°
2026-05-07 01:05 45.84577 23.72839 35023 ft 485 kts 153°
2026-05-07 01:05 45.78706 23.77506 35019 ft 486 kts 153°
2026-05-07 01:06 45.72788 23.82200 35016 ft 487 kts 153°
2026-05-07 01:06 45.66858 23.86890 35017 ft 487 kts 153°
2026-05-07 01:07 45.60924 23.91574 35022 ft 488 kts 153°
2026-05-07 01:07 45.55015 23.96226 35037 ft 488 kts 153°
2026-05-07 01:08 45.49065 24.00898 35061 ft 488 kts 154°
2026-05-07 01:08 45.43110 24.05564 35072 ft 489 kts 154°
2026-05-07 01:09 45.37147 24.10225 35075 ft 489 kts 154°
2026-05-07 01:09 45.31220 24.14846 35079 ft 490 kts 154°
2026-05-07 01:10 45.25238 24.19499 35089 ft 490 kts 154°
2026-05-07 01:10 45.19250 24.24145 35078 ft 491 kts 154°
2026-05-07 01:11 45.13246 24.28792 35079 ft 492 kts 154°
2026-05-07 01:11 45.07268 24.33409 35070 ft 493 kts 154°
2026-05-07 01:12 45.01240 24.38052 35077 ft 494 kts 154°
2026-05-07 01:12 44.95198 24.42695 35063 ft 495 kts 154°
2026-05-07 01:13 44.89143 24.47337 35059 ft 496 kts 154°
2026-05-07 01:13 44.83075 24.51977 35057 ft 496 kts 154°
2026-05-07 01:14 44.77036 24.56584 35055 ft 497 kts 154°
2026-05-07 01:14 44.70947 24.61219 35056 ft 498 kts 154°
2026-05-07 01:15 44.64837 24.65857 35029 ft 499 kts 154°
2026-05-07 01:15 44.58759 24.70461 35045 ft 500 kts 154°
2026-05-07 01:16 44.52621 24.75099 35039 ft 501 kts 154°
2026-05-07 01:16 44.46477 24.79730 35038 ft 502 kts 154°
2026-05-07 01:17 44.40318 24.84361 35030 ft 503 kts 154°
2026-05-07 01:17 44.34147 24.88990 35028 ft 504 kts 154°
2026-05-07 01:18 44.28006 24.93586 35025 ft 504 kts 154°
2026-05-07 01:18 44.21817 24.98206 35022 ft 505 kts 154°
2026-05-07 01:19 44.15618 25.02824 35021 ft 505 kts 154°
2026-05-07 01:19 44.09418 25.07433 35015 ft 506 kts 154°
2026-05-07 01:20 44.03247 25.12010 35012 ft 506 kts 154°
2026-05-07 01:20 43.97028 25.16611 35008 ft 507 kts 154°
2026-05-07 01:21 43.90798 25.21209 35006 ft 507 kts 154°
2026-05-07 01:21 43.84560 25.25803 35007 ft 508 kts 154°
2026-05-07 01:22 43.78364 25.30354 35003 ft 508 kts 154°
2026-05-07 01:22 43.72118 25.34932 35002 ft 508 kts 154°
2026-05-07 01:23 43.65867 25.39502 35004 ft 508 kts 154°
2026-05-07 01:23 43.59551 25.43861 35007 ft 508 kts 156°
2026-05-07 01:24 43.53233 25.48107 35007 ft 508 kts 155°
2026-05-07 01:24 43.46878 25.52389 35007 ft 509 kts 155°
2026-05-07 01:25 43.40520 25.56664 35012 ft 509 kts 155°
2026-05-07 01:25 43.34152 25.60934 35019 ft 509 kts 155°
2026-05-07 01:26 43.27782 25.65196 35016 ft 509 kts 155°
2026-05-07 01:26 43.21452 25.69423 35019 ft 510 kts 155°
2026-05-07 01:27 43.15073 25.73671 35021 ft 510 kts 155°
2026-05-07 01:27 43.08689 25.77913 35022 ft 510 kts 155°
2026-05-07 01:28 43.02339 25.82123 35022 ft 510 kts 155°
2026-05-07 01:28 42.95950 25.86349 35026 ft 511 kts 155°
2026-05-07 01:29 42.89550 25.90572 35041 ft 511 kts 155°
2026-05-07 01:29 42.83147 25.94787 35046 ft 511 kts 155°
2026-05-07 01:30 42.76776 25.98973 35040 ft 512 kts 155°
2026-05-07 01:30 42.70364 26.03174 35059 ft 511 kts 155°
2026-05-07 01:31 42.63953 26.07365 35058 ft 512 kts 155°
2026-05-07 01:31 42.57530 26.11555 35062 ft 512 kts 155°
2026-05-07 01:32 42.51105 26.15737 35066 ft 512 kts 155°
2026-05-07 01:32 42.44717 26.19884 35068 ft 513 kts 155°
2026-05-07 01:33 42.38286 26.24051 35067 ft 513 kts 155°
2026-05-07 01:33 42.31843 26.28215 35064 ft 513 kts 155°
2026-05-07 01:34 42.25393 26.32375 35069 ft 514 kts 155°
2026-05-07 01:34 42.18986 26.36498 35065 ft 514 kts 155°
2026-05-07 01:35 42.12527 26.40644 35070 ft 514 kts 155°
2026-05-07 01:35 42.06065 26.44783 35062 ft 514 kts 155°
2026-05-07 01:36 41.99640 26.48890 35066 ft 515 kts 155°
2026-05-07 01:36 41.93171 26.53017 35064 ft 515 kts 155°
2026-05-07 01:37 41.86738 26.57248 35053 ft 515 kts 147°
2026-05-07 01:37 41.80885 26.62791 35061 ft 515 kts 144°
2026-05-07 01:38 41.75022 26.68325 35064 ft 516 kts 144°
2026-05-07 01:38 41.69189 26.73825 35060 ft 516 kts 144°
2026-05-07 01:39 41.63318 26.79349 35062 ft 516 kts 144°
2026-05-07 01:39 41.57435 26.84870 35062 ft 517 kts 144°
2026-05-07 01:40 41.51550 26.90383 35064 ft 517 kts 144°
2026-05-07 01:40 41.45698 26.95851 35067 ft 517 kts 144°
2026-05-07 01:41 41.39804 27.01347 35065 ft 518 kts 144°
2026-05-07 01:41 41.33898 27.06841 35066 ft 518 kts 144°
2026-05-07 01:42 41.27988 27.12327 35063 ft 518 kts 144°
2026-05-07 01:42 41.22071 27.17807 35068 ft 519 kts 144°
2026-05-07 01:43 41.16185 27.23244 35072 ft 519 kts 144°
2026-05-07 01:43 41.10248 27.28716 35072 ft 519 kts 144°
2026-05-07 01:44 41.04313 27.34174 35077 ft 520 kts 144°
2026-05-07 01:44 40.98364 27.39632 35076 ft 520 kts 144°
2026-05-07 01:45 40.92258 27.44643 35079 ft 520 kts 150°
2026-05-07 01:45 40.85954 27.49370 35077 ft 521 kts 150°
2026-05-07 01:46 40.79671 27.54145 35072 ft 521 kts 150°
2026-05-07 01:46 40.73386 27.58916 35072 ft 522 kts 150°
2026-05-07 01:47 40.67132 27.63653 35075 ft 522 kts 150°
2026-05-07 01:47 40.60830 27.68416 35067 ft 522 kts 150°
2026-05-07 01:48 40.54528 27.73169 35077 ft 523 kts 150°
2026-05-07 01:48 40.48215 27.77920 35079 ft 523 kts 150°
2026-05-07 01:49 40.41935 27.82636 35080 ft 524 kts 150°
2026-05-07 01:49 40.35598 27.87383 35083 ft 524 kts 150°
2026-05-07 01:50 40.29265 27.92118 35084 ft 524 kts 150°
2026-05-07 01:50 40.22928 27.96845 35087 ft 524 kts 150°
2026-05-07 01:51 40.16622 28.01540 35094 ft 525 kts 150°
2026-05-07 01:51 40.10277 28.06252 35100 ft 525 kts 150°
2026-05-07 01:52 40.03921 28.10964 35103 ft 525 kts 150°
2026-05-07 01:52 39.97564 28.15667 35111 ft 526 kts 150°
2026-05-07 01:53 39.91187 28.20338 35116 ft 526 kts 151°
2026-05-07 01:53 39.84837 28.24965 35119 ft 527 kts 151°
2026-05-07 01:54 39.78444 28.29613 35122 ft 527 kts 151°
2026-05-07 01:54 39.72041 28.34259 35124 ft 527 kts 151°
2026-05-07 01:55 39.65631 28.38901 35127 ft 528 kts 151°
2026-05-07 01:55 39.59255 28.43507 35138 ft 528 kts 151°
2026-05-07 01:56 39.52840 28.48133 35147 ft 528 kts 151°
2026-05-07 01:56 39.46410 28.52759 35149 ft 529 kts 151°
2026-05-07 01:57 39.39973 28.57380 35148 ft 529 kts 151°
2026-05-07 01:57 39.33572 28.61965 35154 ft 530 kts 151°
2026-05-07 01:58 39.27123 28.66576 35155 ft 530 kts 151°
2026-05-07 01:58 39.20663 28.71184 35164 ft 530 kts 151°
2026-05-07 01:59 39.14202 28.75784 35167 ft 531 kts 152°
2026-05-07 01:59 39.07739 28.80383 35161 ft 531 kts 151°
2026-05-07 02:00 39.01316 28.84961 35171 ft 531 kts 151°
2026-05-07 02:00 38.94854 28.89556 35175 ft 531 kts 152°
2026-05-07 02:01 38.88393 28.94141 35176 ft 531 kts 152°
2026-05-07 02:01 38.81926 28.98721 35175 ft 531 kts 152°
2026-05-07 02:02 38.75499 29.03263 35164 ft 531 kts 152°
2026-05-07 02:02 38.69033 29.07823 35167 ft 531 kts 152°
2026-05-07 02:03 38.62564 29.12378 35164 ft 531 kts 152°
2026-05-07 02:03 38.56096 29.16923 35165 ft 531 kts 152°
2026-05-07 02:04 38.49666 29.21434 35161 ft 530 kts 152°
2026-05-07 02:04 38.43196 29.25963 35164 ft 530 kts 152°
2026-05-07 02:05 38.36727 29.30482 35163 ft 530 kts 152°
2026-05-07 02:05 38.30251 29.34996 35159 ft 530 kts 152°
2026-05-07 02:06 38.23821 29.39469 35156 ft 531 kts 152°
2026-05-07 02:06 38.17347 29.43964 35156 ft 530 kts 152°
2026-05-07 02:07 38.10861 29.48458 35152 ft 530 kts 152°
2026-05-07 02:07 38.01139 29.55177 35134 ft 530 kts 152°
2026-05-07 02:08 37.94659 29.59644 35144 ft 530 kts 152°
2026-05-07 02:08 37.88222 29.64072 35139 ft 530 kts 152°
2026-05-07 02:09 37.81741 29.68524 35137 ft 530 kts 152°
2026-05-07 02:09 37.78615 29.70991 35110 ft 531 kts 140°
2026-05-07 02:09 37.75977 29.74240 35098 ft 530 kts 133°
2026-05-07 02:10 37.70774 29.80820 35147 ft 530 kts 134°
2026-05-07 02:10 37.65594 29.87356 35143 ft 530 kts 134°
2026-05-07 02:11 37.60374 29.93933 35139 ft 531 kts 134°
2026-05-07 02:11 37.55153 30.00515 35155 ft 531 kts 134°
2026-05-07 02:12 37.49397 30.06264 35096 ft 530 kts 156°
2026-05-07 02:12 37.45997 30.07811 35088 ft 526 kts 170°
2026-05-07 02:12 37.42394 30.08298 35072 ft 517 kts 187°
2026-05-07 02:13 37.35337 30.07045 35146 ft 513 kts 191°
2026-05-07 02:13 37.28249 30.06025 35183 ft 513 kts 190°
2026-05-07 02:14 37.21150 30.05050 35161 ft 515 kts 186°
2026-05-07 02:14 37.17566 30.05427 35111 ft 523 kts 167°
2026-05-07 02:14 37.14256 30.07205 35072 ft 528 kts 147°
2026-05-07 02:15 37.11534 30.10259 35067 ft 527 kts 127°
2026-05-07 02:15 37.09733 30.14223 35058 ft 522 kts 107°
2026-05-07 02:15 37.08910 30.18603 35076 ft 514 kts 91°
2026-05-07 02:15 37.08993 30.23021 35078 ft 505 kts 76°
2026-05-07 02:16 37.09862 30.27240 35100 ft 496 kts 64°
2026-05-07 02:16 37.11421 30.31031 35089 ft 485 kts 49°
2026-05-07 02:16 37.13641 30.34130 35084 ft 473 kts 34°
2026-05-07 02:16 37.16274 30.36425 35109 ft 463 kts 22°
2026-05-07 02:17 37.19231 30.37861 35101 ft 452 kts
2026-05-07 02:17 37.22315 30.38568 35146 ft 449 kts
2026-05-07 02:17 37.28500 30.39644 35181 ft 449 kts
2026-05-07 02:18 37.34701 30.40537 35200 ft 449 kts
2026-05-07 02:18 37.40874 30.41374 35202 ft 449 kts
2026-05-07 02:19 37.47089 30.42212 35219 ft 449 kts
2026-05-07 02:19 37.53225 30.43793 35189 ft 462 kts 20°
2026-05-07 02:20 37.58536 30.48514 35193 ft 478 kts 41°
2026-05-07 02:20 37.60473 30.51967 35171 ft 492 kts 59°
2026-05-07 02:20 37.61457 30.56157 35156 ft 508 kts 79°
2026-05-07 02:21 37.61278 30.60580 35156 ft 520 kts 100°
2026-05-07 02:21 37.59922 30.64830 35136 ft 529 kts 121°
2026-05-07 02:21 37.57516 30.68338 35134 ft 532 kts 141°
2026-05-07 02:21 37.54346 30.70673 35142 ft 527 kts 162°
2026-05-07 02:22 37.50798 30.71552 35268 ft 516 kts 184°
2026-05-07 02:22 37.47320 30.70922 35384 ft 500 kts 205°
2026-05-07 02:22 37.44316 30.68928 35463 ft 481 kts 225°
2026-05-07 02:22 37.42165 30.65906 35528 ft 463 kts 246°
2026-05-07 02:23 37.41054 30.62212 35586 ft 447 kts 265°
2026-05-07 02:23 37.40539 30.58373 35696 ft 448 kts 260°
2026-05-07 02:23 37.39285 30.54735 35711 ft 464 kts 240°
2026-05-07 02:23 37.37009 30.51770 35699 ft 482 kts 220°
2026-05-07 02:24 37.33941 30.49925 35697 ft 499 kts 199°
2026-05-07 02:24 37.30467 30.49402 35718 ft 510 kts 181°
2026-05-07 02:24 37.26937 30.50041 35740 ft 517 kts 167°
2026-05-07 02:24 37.23499 30.51119 35777 ft 515 kts 174°
2026-05-07 02:25 37.19954 30.51297 35758 ft 508 kts 190°
2026-05-07 02:25 37.16468 30.50685 35808 ft 507 kts 189°
2026-05-07 02:25 37.12923 30.50782 35777 ft 516 kts 173°
2026-05-07 02:26 37.09242 30.52322 35749 ft 523 kts 152°
2026-05-07 02:26 37.06373 30.55101 35731 ft 524 kts 131°
2026-05-07 02:26 37.04361 30.58864 35739 ft 520 kts 112°
2026-05-07 02:26 37.03133 30.63092 35793 ft 517 kts 106°
2026-05-07 02:27 37.01641 30.67120 35788 ft 522 kts 124°
2026-05-07 02:27 36.99162 30.70421 35758 ft 523 kts 145°
2026-05-07 02:27 36.95968 30.72515 35758 ft 517 kts 166°
2026-05-07 02:27 36.92458 30.73272 35779 ft 509 kts 182°
2026-05-07 02:28 36.88969 30.72871 35791 ft 500 kts 198°
2026-05-07 02:28 36.85746 30.71402 35793 ft 489 kts 213°
2026-05-07 02:28 36.82933 30.69094 35802 ft 479 kts 226°
2026-05-07 02:28 36.80779 30.66133 35737 ft 451 kts 242°
2026-05-07 02:29 36.79420 30.62777 35429 ft 421 kts 258°
2026-05-07 02:29 36.78896 30.59283 34672 ft 404 kts 273°
2026-05-07 02:29 36.78955 30.55812 33777 ft 399 kts 277°
2026-05-07 02:29 36.79091 30.52369 32799 ft 397 kts 277°
2026-05-07 02:30 36.79263 30.48949 31856 ft 394 kts 279°
2026-05-07 02:30 36.79477 30.45552 30933 ft 392 kts 279°
2026-05-07 02:30 36.79735 30.42186 30053 ft 384 kts 287°
2026-05-07 02:30 36.80752 30.39215 29869 ft 367 kts 308°
2026-05-07 02:31 36.82303 30.36855 29965 ft 346 kts 314°
2026-05-07 02:31 36.84030 30.34818 29136 ft 342 kts 323°
2026-05-07 02:31 36.86059 30.33251 28167 ft 344 kts 334°
2026-05-07 02:31 36.88326 30.32270 27254 ft 348 kts 345°
2026-05-07 02:32 36.90742 30.31913 26348 ft 353 kts 356°
2026-05-07 02:32 36.93204 30.32245 25448 ft 361 kts
2026-05-07 02:32 36.95647 30.32968 24570 ft 362 kts
2026-05-07 02:32 36.98103 30.33678 23706 ft 363 kts
2026-05-07 02:33 37.00571 30.34404 22695 ft 365 kts
2026-05-07 02:33 37.03009 30.35130 21717 ft 366 kts
2026-05-07 02:33 37.05491 30.35878 20772 ft 366 kts
2026-05-07 02:33 37.07959 30.36627 20012 ft 363 kts
2026-05-07 02:34 37.10397 30.37300 19329 ft 354 kts
2026-05-07 02:34 37.12817 30.37592 18678 ft 347 kts
2026-05-07 02:34 37.15203 30.37910 17976 ft 342 kts
2026-05-07 02:34 37.17554 30.38239 17372 ft 335 kts
2026-05-07 02:35 37.19826 30.38563 16941 ft 323 kts
2026-05-07 02:35 37.21993 30.39133 16486 ft 318 kts 19°
2026-05-07 02:35 37.23803 30.40639 16037 ft 320 kts 41°
2026-05-07 02:35 37.25067 30.42939 15547 ft 322 kts 59°
2026-05-07 02:36 37.26013 30.45462 15057 ft 317 kts 60°
2026-05-07 02:36 37.26929 30.47958 14568 ft 312 kts 60°
2026-05-07 02:36 37.27836 30.50415 14102 ft 308 kts 60°
2026-05-07 02:36 37.28729 30.52835 13582 ft 304 kts 62°
2026-05-07 02:37 37.29233 30.55413 13032 ft 308 kts 86°
2026-05-07 02:37 37.28811 30.58045 12490 ft 311 kts 112°
2026-05-07 02:37 37.27612 30.60222 12088 ft 306 kts 136°
2026-05-07 02:37 37.25888 30.61620 11972 ft 287 kts 160°
2026-05-07 02:38 37.24014 30.62151 11842 ft 269 kts 172°
2026-05-07 02:38 37.22189 30.62629 11424 ft 267 kts 167°
2026-05-07 02:38 37.20392 30.63160 11232 ft 266 kts 167°
2026-05-07 02:38 37.18553 30.63715 11079 ft 281 kts 167°
2026-05-07 02:39 37.16599 30.64322 11004 ft 297 kts 166°
2026-05-07 02:39 37.14555 30.64954 10997 ft 306 kts 167°
2026-05-07 02:39 37.12471 30.65591 10987 ft 311 kts 167°
2026-05-07 02:39 37.10395 30.66220 10934 ft 311 kts 167°
2026-05-07 02:40 37.08291 30.66853 10788 ft 313 kts 167°
2026-05-07 02:40 37.06163 30.67493 10348 ft 316 kts 167°
2026-05-07 02:40 37.04026 30.68133 10007 ft 315 kts 167°
2026-05-07 02:40 37.01876 30.68416 9737 ft 308 kts 185°
2026-05-07 02:41 36.99762 30.68216 9556 ft 300 kts 185°
2026-05-07 02:41 36.97722 30.68044 9362 ft 289 kts 185°
2026-05-07 02:41 36.95722 30.67876 9129 ft 288 kts 185°
2026-05-07 02:41 36.93722 30.67709 8884 ft 288 kts 185°
2026-05-07 02:42 36.91758 30.67546 8507 ft 287 kts 185°
2026-05-07 02:42 36.89737 30.67378 7842 ft 295 kts 185°
2026-05-07 02:42 36.87675 30.67207 7213 ft 299 kts 185°
2026-05-07 02:42 36.85583 30.67033 6603 ft 303 kts 184°
2026-05-07 02:43 36.83472 30.66858 5973 ft 305 kts 184°
2026-05-07 02:43 36.81350 30.66682 5339 ft 307 kts 185°
2026-05-07 02:43 36.79218 30.66505 4723 ft 308 kts 185°
2026-05-07 02:43 36.77077 30.66328 4106 ft 308 kts 184°
2026-05-07 02:44 36.74995 30.66155 3801 ft 297 kts 184°
2026-05-07 02:44 36.72980 30.65988 3610 ft 283 kts 184°
2026-05-07 02:44 36.71065 30.65829 3602 ft 271 kts 184°
2026-05-07 02:44 36.69236 30.65678 4311 ft 250 kts 184°
2026-05-07 02:45 36.67512 30.65801 4523 ft 249 kts 163°
2026-05-07 02:45 36.66013 30.66835 4117 ft 250 kts 135°
2026-05-07 02:45 36.65085 30.68658 3527 ft 255 kts 106°
2026-05-07 02:45 36.64762 30.70844 2937 ft 260 kts 94°
2026-05-07 02:46 36.65021 30.73049 2419 ft 259 kts 64°
2026-05-07 02:46 36.66072 30.74703 2349 ft 238 kts 34°
2026-05-07 02:46 36.67468 30.75659 2387 ft 227 kts 22°
2026-05-07 02:46 36.68963 30.76277 2386 ft 226 kts 12°
2026-05-07 02:47 36.70510 30.76598 2381 ft 226 kts
2026-05-07 02:47 36.72072 30.76815 2378 ft 225 kts
2026-05-07 02:47 36.73627 30.77024 2424 ft 226 kts
2026-05-07 02:47 36.75158 30.77234 2410 ft 215 kts
2026-05-07 02:48 36.76580 30.77426 2412 ft 196 kts
2026-05-07 02:48 36.77876 30.77604 2273 ft 185 kts
2026-05-07 02:48 36.79112 30.77773 2053 ft 170 kts
2026-05-07 02:48 36.80247 30.77927 1824 ft 161 kts
2026-05-07 02:49 36.81356 30.78080 1623 ft 159 kts
2026-05-07 02:49 36.82420 30.78225 1430 ft 151 kts
2026-05-07 02:49 36.83452 30.78367 1210 ft 148 kts
2026-05-07 02:49 36.84477 30.78506 993 ft 149 kts
2026-05-07 02:50 36.85481 30.78647 770 ft 144 kts
2026-05-07 02:50 36.86494 30.78777 583 ft 147 kts
2026-05-07 02:50 36.87500 30.78926 401 ft 144 kts
2026-05-07 02:50 36.88485 30.79059 227 ft 140 kts
2026-05-07 02:51 36.89388 30.79179 179 ft 111 kts
2026-05-07 02:51 36.89924 30.79252 178 ft 59 kts
2026-05-07 02:51 36.90275 30.79308 178 ft 35 kts 24°
2026-05-07 02:51 36.90433 30.79444 178 ft 15 kts 36°
2026-05-07 02:52 36.90474 30.79508 178 ft 5 kts 99°
2026-05-07 02:52 36.90445 30.79541 178 ft 7 kts 168°
2026-05-07 02:52 36.90416 30.79589 178 ft 11 kts 97°
2026-05-07 02:52 36.90406 30.79725 178 ft 22 kts 96°
2026-05-07 02:53 36.90384 30.79962 178 ft 33 kts 96°
2026-05-07 02:53 36.90360 30.80241 178 ft 33 kts 96°
2026-05-07 02:53 36.90339 30.80469 178 ft 22 kts 95°
2026-05-07 02:53 36.90321 30.80654 178 ft 14 kts 116°
2026-05-07 02:54 36.90236 30.80668 178 ft 13 kts 194°
2026-05-07 02:54 36.90139 30.80654 178 ft 15 kts 186°
2026-05-07 02:54 36.90070 30.80618 178 ft 10 kts 249°
2026-05-07 02:54 36.90059 30.80545 178 ft 5 kts 249°
2026-05-07 02:55 36.90052 30.80522 178 ft 0 kts 249°